This is the latest recevied weather packets stored in our database for station/object AA7F. If no packets are shown the sender has not sent any weather packets the latest 10 day(s).
| Time | Temp. | Humidity | Pressure | Rain* | Wind** | Luminosity | Snow |
|---|---|---|---|---|---|---|---|
| 1777651921 | 13.33° C | 59% | 1018.6 hPa | 0 mm | - | 557 W/m² | - |
| 1777651617 | 13.33° C | 59% | 1018.8 hPa | 0 mm | - | 538 W/m² | - |
| 1777651315 | 12.78° C | 60% | 1018.3 hPa | 0 mm | - | 508 W/m² | - |
| 1777651011 | 12.78° C | 61% | 1018.9 hPa | 0 mm | - | 467 W/m² | - |
| 1777650708 | 12.78° C | 62% | 1018.6 hPa | 0 mm | - | 421 W/m² | - |
| 1777650102 | 12.22° C | 64% | 1018.8 hPa | 0 mm | - | 389 W/m² | - |
| 1777649800 | 11.67° C | 65% | 1019 hPa | 0 mm | - | 360 W/m² | - |
| 1777649497 | 11.67° C | 65% | 1019 hPa | 0 mm | - | 382 W/m² | - |
| 1777649193 | 11.11° C | 66% | 1019.1 hPa | 0 mm | - | 331 W/m² | - |
| 1777648890 | 11.11° C | 67% | 1019 hPa | 0 mm | - | 311 W/m² | - |
| 1777648587 | 10.56° C | 69% | 1019.1 hPa | 0 mm | - | 289 W/m² | - |
| 1777648284 | 10.56° C | 70% | 1019 hPa | 0 mm | - | 279 W/m² | - |
| 1777647980 | 10° C | 71% | 1018.9 hPa | 0 mm | - | 268 W/m² | - |
| 1777647676 | 10° C | 71% | 1018.9 hPa | 0 mm | - | 260 W/m² | - |
| 1777647372 | 9.44° C | 72% | 1018.9 hPa | 0 mm | - | 239 W/m² | - |
| 1777647071 | 9.44° C | 72% | 1019.1 hPa | 0 mm | - | 215 W/m² | - |
| 1777646766 | 9.44° C | 73% | 1019.1 hPa | 0 mm | - | 222 W/m² | - |
| 1777646461 | 8.89° C | 74% | 1019.3 hPa | 0 mm | - | 199 W/m² | - |
| 1777646158 | 8.89° C | 74% | 1019.3 hPa | 0 mm | - | 186 W/m² | - |
| 1777645855 | 8.33° C | 76% | 1019 hPa | 0 mm | - | 167 W/m² | - |
| 1777645552 | 8.33° C | 77% | 1019.1 hPa | 0 mm | - | 158 W/m² | - |
| 1777645248 | 7.78° C | 77% | 1019.2 hPa | 0 mm | - | 148 W/m² | - |
| 1777644944 | 7.78° C | 78% | 1019.1 hPa | 0 mm | - | 132 W/m² | - |
| 1777644642 | 7.78° C | 78% | 1019 hPa | 0 mm | - | 121 W/m² | - |
| 1777644338 | 7.78° C | 78% | 1019.2 hPa | 0 mm | - | 87 W/m² | - |
* Rain latest hour (hover to see other rain measurements)
** Current wind speed in m/s (hover to see current wind gust speed)